Tracking 31027 objects as of 19-Jul-2025
HD Live streaming from Space Station
objects crossing your sky now

THOR ABLESTAR DEB

Track THOR ABLESTAR DEB now!
10-day predictions


NORAD ID: 4028
Int'l Code: 1961-015JQ
Perigee: 623.0 km
Apogee: 768.5 km
Inclination: 66.7 °
Period: 98.5 minutes
Semi major axis: 7066 km
RCS: 0.0031 m2 (small)
Launch date: June 29, 1961
Source: United States (US)
Launch site: AIR FORCE EASTERN TEST RANGE (AFETR)

Note: This is SATELLITE DEBRIS
Your satellite tracking list
PRISMA
Track 1 satellite(s)




NASA's NSSDC Master Catalog

Two Line Element Set (TLE):
1 04028U 61015JQ  25199.02849276  .00001169  00000-0  23942-3 0  9991
2 04028  66.7495 178.3132 0102956 254.9333 104.0372 14.61411472324962
Source of the keplerian elements: AFSPC